This is the latest recevied weather packets stored in our database for station/object K8GLX. If no packets are shown the sender has not sent any weather packets the latest 1 day(s).
| Time | Temp. | Humidity | Pressure | Rain* | Wind** | Luminosity | Snow |
|---|---|---|---|---|---|---|---|
| 1778033216 | 9.44° C | 98% | 1008.9 hPa | 1.02 mm | 1.34 m/s, 356° | 0 W/m² | - |
| 1778032909 | 9.44° C | 98% | 1008.9 hPa | 0.76 mm | 0.89 m/s, 326° | 0 W/m² | - |
| 1778032615 | 9.44° C | 98% | 1008.9 hPa | 0.51 mm | 0.89 m/s, 300° | 0 W/m² | - |
| 1778032308 | 9.44° C | 98% | 1008.9 hPa | 0.76 mm | 0.89 m/s, 22° | 0 W/m² | - |
| 1778032014 | 9.44° C | 98% | 1008.9 hPa | 0.51 mm | 0 m/s | 0 W/m² | - |
| 1778031706 | 9.44° C | 98% | 1008.9 hPa | 0.51 mm | 0 m/s | 0 W/m² | - |
| 1778031411 | 9.44° C | 98% | 1008.9 hPa | 0.76 mm | 0 m/s | 0 W/m² | - |
| 1778031105 | 9.44° C | 98% | 1008.5 hPa | 0.76 mm | 0 m/s | 0 W/m² | - |
| 1778030813 | 9.44° C | 98% | 1008.5 hPa | 0.76 mm | 0 m/s | 0 W/m² | - |
| 1778030504 | 9.44° C | 98% | 1008.5 hPa | 0.76 mm | 0.45 m/s, 91° | 0 W/m² | - |
| 1778030209 | 9.44° C | 98% | 1008.5 hPa | 0.51 mm | 0.89 m/s, 288° | 0 W/m² | - |
| 1778029902 | 9.44° C | 98% | 1008.5 hPa | 0.51 mm | 0.45 m/s, 180° | 0 W/m² | - |
| 1778029608 | 9.44° C | 98% | 1008.5 hPa | 0.51 mm | 0 m/s | 0 W/m² | - |
| 1778029301 | 9.44° C | 98% | 1008.5 hPa | 0.51 mm | 0.89 m/s, 327° | 0 W/m² | - |
| 1778029006 | 9.44° C | 98% | 1008.2 hPa | 0.51 mm | 0.89 m/s, 299° | 0 W/m² | - |
| 1778028700 | 9.44° C | 98% | 1008.5 hPa | 0.25 mm | 0.45 m/s, 332° | 0 W/m² | - |
| 1778028532 | 9.44° C | 98% | 1008.2 hPa | 0.51 mm | 0.45 m/s, 332° | 0 W/m² | - |
| 1778028098 | 9.44° C | 97% | 1008.5 hPa | 0.51 mm | 0.89 m/s, 10° | 0 W/m² | - |
| 1778027797 | 9.44° C | 97% | 1008.2 hPa | 0.51 mm | 0.89 m/s, 32° | 0 W/m² | - |
| 1778027490 | 9.44° C | 97% | 1008.5 hPa | 0.51 mm | 0.89 m/s, 354° | 0 W/m² | - |
| 1778027324 | 9.44° C | 97% | 1008.2 hPa | 0.51 mm | 1.79 m/s, 29° | 0 W/m² | - |
| 1778026890 | 9.44° C | 97% | 1008.2 hPa | 0.76 mm | 2.68 m/s, 48° | 0 W/m² | - |
| 1778026596 | 9.44° C | 97% | 1008.2 hPa | 1.27 mm | 1.34 m/s, 347° | 0 W/m² | - |
| 1778026293 | 9.44° C | 97% | 1007.8 hPa | 2.29 mm | 1.34 m/s, 83° | 2 W/m² | - |
| 1778026134 | 9.44° C | 97% | 1007.8 hPa | 2.79 mm | 1.34 m/s, 88° | 4 W/m² | - |
* Rain latest hour (hover to see other rain measurements)
** Current wind speed in m/s (hover to see current wind gust speed)